Flag for Germany Weather past 2 weeks in Görlitz, Saxony, Germany

Now
55 °F

Partly sunny.


Feels Like: 54 °F
Forecast: 35 / 59 °F
Wind: 5 mph from North

Location: Goerlitz

Current Time: Apr 19, 2015 at 3:29:29 PM

Latest Report: Apr 19, 2015 at 3:00 PM


Visibility: 44 mi

Pressure: 30.18 "Hg

Humidity: 42%

Dew point: 32 °F

Location of GörlitzLocation

Historic Weather in Görlitz — Graph

°F

Görlitz temperature yesterday

Maximum temperature yesterday: 46 °F (at 7:00 PM)
Minimum temperature yesterday: 34 °F (at 7:00 AM)
Average temperature yesterday: 41 °F

Past Weeks' High & Low Weather Summary

 TemperatureHumidityPressure
High70 °F (Apr 11, 4:00 PM)100% (Apr 5, 4:00 AM)30.58 "Hg (Apr 5, 4:00 AM)
Low28 °F (Apr 5, 7:00 AM)29% (Apr 11, 3:00 PM)29.87 "Hg (Apr 15, 11:00 PM)
Average46 °F67%30.22 "Hg
* Reported Apr 4 2:00 PM — Apr 19 2:00 PM, Görlitz, Weather by CustomWeather, © 2015

Note: Actual official high and low records may vary slightly from our data, if they occured in-between our weather recording intervals... More about our weather records

Advertising

Görlitz weather history for previous 24 hours

 ConditionsComfort  
Time TempWeatherWind HumidityBarometerVisibility
2:00 PM
Sun, Apr 19
53 °FOvercast.3 mph38%30.18 "Hg37 mi
1:00 PM51 °FPartly sunny.3 mph39%30.19 "Hg37 mi
12:00 PM50 °FPassing clouds.2 mph45%30.20 "Hg34 mi
11:00 AM49 °FPassing clouds.2 mph55%30.21 "Hg34 mi
10:00 AM48 °FPassing clouds.1 mph56%30.21 "Hg34 mi
9:00 AM43 °FPassing clouds.1 mph64%30.22 "Hg34 mi
8:00 AM40 °FPassing clouds.1 mph78%30.22 "Hg34 mi
7:00 AM32 °FPartly sunny.2 mph92%30.22 "Hg34 mi
6:00 AM31 °FScattered clouds.2 mph94%30.22 "Hg22 mi
5:00 AM32 °FPassing clouds.2 mph88%30.21 "Hg16 mi
4:00 AM33 °FPassing clouds.1 mph94%30.22 "Hg16 mi
3:00 AM35 °FPassing clouds.1 mph92%30.23 "Hg22 mi
2:00 AM36 °FPassing clouds.1 mph89%30.24 "Hg19 mi
1:00 AM38 °FPassing clouds.2 mph74%30.24 "Hg22 mi
12:00 AM38 °FPassing clouds.2 mph71%30.24 "Hg25 mi
11:00 PM
Sat, Apr 18
38 °FPassing clouds.2 mph67%30.24 "Hg25 mi
10:00 PM38 °FPassing clouds.2 mph67%30.24 "Hg28 mi
9:00 PM38 °FPassing clouds.1 mph71%30.24 "Hg31 mi
8:00 PM43 °FPassing clouds.1 mph57%30.23 "Hg34 mi
7:00 PM46 °FOvercast.3 mph52%30.22 "Hg34 mi
6:00 PM45 °FOvercast.3 mph56%30.23 "Hg34 mi
5:00 PM44 °FOvercast.5 mph57%30.23 "Hg40 mi
4:00 PM45 °FOvercast.3 mph56%30.24 "Hg28 mi
3:00 PM45 °FOvercast.5 mph47%30.25 "Hg25 mi
Weather by CustomWeather, © 2015

See weather overviewHow to use our weather pages